[[{"header":{"parameterUnit":"m.s-1","parameterCategory":1,"la1":30.2992,"la2":30.254,"lo1":-89.0895,"lo2":-89.0443,"dy":0.0025,"dx":0.0025,"nx":19,"ny":19,"refTime":"2026-04-29T03:00:00:Z","depth":0,"parameterNumber":2,"parameterNumberName":"U-component_of_WINDS"},"data":[0,0,0,3.4276,3.4276,3.4256,3.4256,3.429,3.4291,0,0,0,0,0,0,0,0,0,0,0,3.4315,3.4317,3.4276,3.4276,3.4257,3.4256,3.429,3.4291,0,0,0,0,0,0,0,0,0,0,0,3.4315,3.4316,3.4318,3.4276,3.4257,3.4256,3.429,3.4284,0,0,0,0,0,0,0,0,0,0,3.4293,3.4362,3.4316,3.4318,3.4276,3.4257,3.4256,3.4283,3.4284,3.4323,0,3.4366,0,3.4329,3.4297,3.4297,0,0,0,3.4251,3.4361,3.4325,3.4318,3.4276,3.4257,3.4258,3.4283,3.4285,3.4326,3.4366,3.4365,3.433,3.4297,3.4298,3.4603,3.4606,0,0,3.4252,3.4331,3.4324,3.4328,3.4333,3.4259,3.4258,3.4283,3.4332,3.4366,3.4365,3.433,3.4298,3.4298,3.46,3.4604,0,0,0,3.4272,3.4333,3.4294,3.4328,3.432,3.4259,3.4258,3.4331,3.4312,3.4365,3.4331,3.4298,3.4299,3.4597,3.4602,3.4805,0,0,0,3.4271,3.4344,3.4296,3.4344,3.4321,3.4325,3.4307,3.431,3.431,3.433,3.4298,3.43,3.4594,3.46,3.4793,3.4889,0,0,0,3.4305,3.4347,3.4356,3.4348,3.4342,3.4323,3.4304,3.4308,3.4291,3.4297,3.43,3.4592,3.4599,3.4782,3.4871,3.4992,0,0,0,3.4364,3.4538,3.4361,3.4542,3.4343,3.4449,3.4303,3.4378,3.4407,3.4299,3.4595,3.4601,3.4779,3.486,3.4981,3.5107,3.5167,0,0,3.4627,3.4573,3.4673,3.4513,3.467,3.4445,3.4632,3.4585,3.4516,3.4578,3.4585,3.4797,3.487,3.4989,3.5476,3.5525,0,0,0,3.4783,3.4856,3.488,3.4911,3.4879,3.486,3.4776,3.4759,3.4808,3.4563,3.4871,3.4912,3.4979,3.5036,3.5077,3.5129,3.4631,3.463,3.4629,3.5269,3.5168,3.5327,3.5225,3.5258,3.5169,3.5186,3.5148,3.5039,3.5114,3.5131,3.5439,3.5509,3.5539,3.5595,3.519,3.5191,3.5191,3.5192,3.5645,3.5733,3.5582,3.5682,3.5576,3.566,3.5583,3.5503,3.5566,3.5417,3.5471,3.5317,3.5595,3.5639,3.5206,3.5204,3.5202,3.5201,3.52,3.5952,3.5976,3.5952,3.5986,3.6024,3.5915,3.5983,3.5883,3.5791,3.5844,3.5853,3.5849,3.5833,3.5855,3.5857,3.5858,3.5858,3.5859,3.586,3.628,3.6245,3.6313,3.6294,3.6301,3.6298,3.6212,3.6216,3.6196,3.6119,3.6118,3.6003,3.564,3.5552,3.5876,3.5873,3.5871,3.587,3.5868,3.6699,3.6588,3.6694,3.6701,3.667,3.6715,3.6588,3.6606,3.6595,3.6633,3.6505,3.6253,3.619,3.6157,3.6083,3.6525,3.6525,3.6525,3.6525,3.6958,3.6916,3.7001,3.7019,3.7025,3.692,3.7045,3.6981,3.6898,3.6885,3.6807,3.67,3.6671,3.6625,3.6582,3.6511,3.7052,3.7053,3.7053,3.7209,3.7163,3.7287,3.7202,3.7171,3.7148,3.7262,3.729,3.7172,3.7073,3.6874,3.6852,3.6678,3.6626,3.6522,3.6457,3.6325,0,0]},{"header":{"parameterUnit":"m.s-1","parameterCategory":1,"la1":30.2992,"la2":30.254,"lo1":-89.0895,"lo2":-89.0443,"dy":0.0025,"dx":0.0025,"nx":19,"ny":19,"refTime":"2026-04-29T03:00:00:Z","depth":0,"parameterNumber":3,"parameterNumberName":"V-component_of_WINDS"},"data":[0,0,0,1.8897,1.8898,1.893,1.893,1.8992,1.8993,0,0,0,0,0,0,0,0,0,0,0,1.89,1.8901,1.8897,1.8898,1.893,1.893,1.8992,1.8993,0,0,0,0,0,0,0,0,0,0,0,1.8899,1.89,1.8901,1.8898,1.893,1.893,1.8992,1.896,0,0,0,0,0,0,0,0,0,0,1.8925,1.894,1.89,1.8902,1.8898,1.893,1.893,1.8958,1.8962,1.8986,0,1.9011,0,1.9003,1.8998,1.8999,0,0,0,1.8889,1.8937,1.8934,1.8902,1.8899,1.893,1.8913,1.896,1.8965,1.8992,1.9012,1.9014,1.9004,1.8999,1.8999,1.9171,1.9172,0,0,1.8887,1.8912,1.8932,1.8938,1.8934,1.8912,1.8914,1.8963,1.8986,1.9012,1.9015,1.9005,1.9,1.9,1.9169,1.9171,0,0,0,1.8888,1.8912,1.8907,1.8936,1.894,1.8913,1.8916,1.8984,1.8981,1.9015,1.9006,1.9,1.9001,1.9168,1.917,1.9256,0,0,0,1.8886,1.8912,1.8907,1.8923,1.894,1.8963,1.8937,1.8977,1.8982,1.9006,1.9,1.9002,1.9167,1.9169,1.9251,1.9293,0,0,0,1.8893,1.8913,1.8922,1.8924,1.8939,1.8961,1.896,1.8978,1.8977,1.8999,1.9002,1.9166,1.9169,1.9246,1.9285,1.9345,0,0,0,1.8908,1.8998,1.8924,1.902,1.8939,1.9015,1.896,1.9014,1.9043,1.9,1.9167,1.917,1.9244,1.928,1.934,1.9401,1.9429,0,0,1.9035,1.9014,1.9069,1.9003,1.9099,1.9007,1.9115,1.9117,1.9096,1.9147,1.9151,1.9253,1.9284,1.9344,1.9575,1.9597,0,0,0,1.9118,1.9157,1.9177,1.9206,1.921,1.9217,1.92,1.9201,1.9243,1.9128,1.929,1.9308,1.9342,1.937,1.9389,1.9417,1.9184,1.9183,1.9183,1.9334,1.9302,1.9391,1.9363,1.9392,1.9374,1.9394,1.9392,1.9351,1.9391,1.9405,1.9549,1.9583,1.9597,1.9626,1.9435,1.9435,1.9435,1.9436,1.9518,1.9569,1.9513,1.9579,1.9545,1.9599,1.9586,1.9555,1.9601,1.9535,1.9564,1.9495,1.9622,1.9646,1.9442,1.9441,1.944,1.9439,1.9439,1.9656,1.9675,1.9675,1.9714,1.9747,1.9716,1.9763,1.973,1.9699,1.9727,1.974,1.9738,1.9733,1.9736,1.9736,1.9737,1.9737,1.9737,1.9738,1.9799,1.9796,1.984,1.9853,1.9867,1.9882,1.9865,1.9878,1.9885,1.9857,1.9857,1.9813,1.964,1.9598,1.9745,1.9744,1.9743,1.9742,1.9742,1.9997,1.9947,2.0015,2.003,2.0042,2.0078,2.0035,2.0065,2.0072,2.0096,2.0046,1.9924,1.9899,1.9884,1.9849,2.0052,2.0052,2.0052,2.0052,2.0114,2.0099,2.0161,2.0186,2.0208,2.0177,2.0255,2.0243,2.0222,2.0224,2.019,2.014,2.0126,2.011,2.009,2.0056,2.0308,2.0308,2.0309,2.0234,2.0219,2.0292,2.0272,2.0279,2.0286,2.0358,2.039,2.0357,2.0318,2.0225,2.0214,2.0134,2.0109,2.0069,2.0038,1.9976,0,0]}]]